Location: Castelbiague
(43.0361°N, 0.9246°E)
Time: 09:31:35
(UTC+00:00)

Cosmos 2278 Rocket - Visible Passes

Search period start: 28 October 2021 00:00
Search period end: 07 November 2021 00:00
Orbit: 840 x 846 km, 71.0° (Epoch: 27 October)

Date Brightness Start Highest point End Pass type
(mag) Time Alt. Az. Time Alt. Az. Time Alt. Az.
28 Oct 3.2 18:34:07 10° N 18:38:33 26° NE 18:38:33 26° NE visible
28 Oct 4.0 20:17:44 10° NW 20:20:25 27° NW 20:20:25 27° NW visible
29 Oct 3.2 18:19:34 10° N 18:24:15 26° NE 18:24:44 25° ENE visible
29 Oct 3.5 20:03:09 10° NNW 20:06:37 36° NW 20:06:37 36° NW visible
30 Oct 3.2 18:05:01 10° N 18:09:38 25° NE 18:11:03 22° ENE visible
30 Oct 3.0 19:48:32 10° NNW 19:52:57 48° WNW 19:52:57 48° WNW visible
31 Oct 3.3 17:50:28 10° N 17:55:00 24° NE 17:57:32 18° E visible
31 Oct 2.6 19:33:55 10° NNW 19:39:26 59° WSW 19:39:26 59° WSW visible
01 Nov 3.3 17:35:56 10° N 17:40:23 23° NE 17:44:13 12° E visible
01 Nov 2.6 19:19:19 10° NNW 19:24:54 61° WSW 19:26:09 49° SSW visible
02 Nov 3.4 17:21:23 10° N 17:25:45 22° NE 17:30:05 10° E visible
02 Nov 2.5 19:04:42 10° NNW 19:10:19 64° WSW 19:13:12 29° S visible
03 Nov 2.5 18:50:06 10° NNW 18:55:44 67° WSW 19:00:51 13° SSE visible
04 Nov 2.4 18:35:30 10° NNW 18:41:09 70° WSW 18:46:45 10° SSE visible
05 Nov 2.4 18:20:54 10° NNW 18:26:34 73° WSW 18:32:10 10° SSE visible
06 Nov 2.4 18:06:18 10° NNW 18:11:58 77° WSW 18:17:36 10° SSE visible
